Météo par heure à Alimovskiy

Ce jour, 31 Octobre, Samedi

Heure Température Précipitation Vent Pression Humidité
00:00 +12°C° 0.1 mm 3 m/s 750 mmHg 93%
01:00 +12°C° 0.2 mm 3 m/s 750 mmHg 94%
02:00 +12°C° 0.2 mm 2 m/s 750 mmHg 95%
03:00 +12°C° 0.2 mm 2 m/s 750 mmHg 96%
04:00 +13°C° 0 mm 2 m/s 750 mmHg 96%
05:00 +13°C° 0 mm 2 m/s 750 mmHg 97%
06:00 +13°C° 0 mm 2 m/s 750 mmHg 97%
07:00 +13°C° 0 mm 2 m/s 750 mmHg 96%
08:00 +14°C° 0 mm 2 m/s 750 mmHg 94%
09:00 +14°C° 0 mm 2 m/s 750 mmHg 93%
10:00 +15°C° 0 mm 2 m/s 750 mmHg 89%
11:00 +16°C° 0 mm 2 m/s 750 mmHg 86%
12:00 +16°C° 0 mm 2 m/s 750 mmHg 82%
13:00 +17°C° 0.1 mm 3 m/s 750 mmHg 81%
14:00 +17°C° 0.1 mm 3 m/s 750 mmHg 80%
15:00 +17°C° 0.1 mm 3 m/s 750 mmHg 79%
16:00 +16°C° 0.2 mm 3 m/s 750 mmHg 83%
17:00 +16°C° 0.2 mm 3 m/s 750 mmHg 87%
18:00 +14°C° 0.2 mm 3 m/s 750 mmHg 91%
19:00 +14°C° 0 mm 4 m/s 750 mmHg 89%
20:00 +13°C° 0 mm 4 m/s 750 mmHg 88%
21:00 +13°C° 0 mm 4 m/s 751 mmHg 86%
22:00 +13°C° 0 mm 4 m/s 751 mmHg 83%
23:00 +12°C° 0 mm 5 m/s 751 mmHg 80%

Demain, 1 Novembre, Dimanche

Heure Température Précipitation Vent Pression Humidité
00:00 +12°C° 0 mm 5 m/s 751 mmHg 77%
01:00 +12°C° 0.3 mm 5 m/s 751 mmHg 77%
02:00 +12°C° 0.3 mm 4 m/s 751 mmHg 78%
03:00 +12°C° 0.3 mm 4 m/s 751 mmHg 79%
04:00 +11°C° 1.4 mm 4 m/s 751 mmHg 83%
05:00 +11°C° 1.4 mm 4 m/s 752 mmHg 88%
06:00 +11°C° 1.4 mm 4 m/s 752 mmHg 92%
07:00 +11°C° 0 mm 4 m/s 752 mmHg 90%
08:00 +11°C° 0 mm 3 m/s 752 mmHg 89%
09:00 +12°C° 0 mm 3 m/s 753 mmHg 87%
10:00 +12°C° 0 mm 3 m/s 753 mmHg 83%
11:00 +13°C° 0 mm 3 m/s 753 mmHg 78%
12:00 +14°C° 0 mm 3 m/s 753 mmHg 74%
13:00 +14°C° 0 mm 3 m/s 753 mmHg 71%
14:00 +16°C° 0 mm 3 m/s 753 mmHg 68%
15:00 +16°C° 0 mm 3 m/s 753 mmHg 66%
16:00 +13°C° 0 mm 3 m/s 753 mmHg 68%
17:00 +12°C° 0 mm 4 m/s 753 mmHg 71%
18:00 +10°C° 0 mm 4 m/s 753 mmHg 74%
19:00 +10°C° 0 mm 4 m/s 753 mmHg 71%
20:00 +8°C° 0 mm 4 m/s 753 mmHg 68%
21:00 +8°C° 0 mm 4 m/s 753 mmHg 65%
22:00 +7°C° 0 mm 4 m/s 753 mmHg 63%
23:00 +8°C° 0 mm 3 m/s 753 mmHg 61%

Après-demain, 2 Novembre, Lundi

Heure Température Précipitation Vent Pression Humidité
00:00 +7°C° 0 mm 3 m/s 753 mmHg 59%
01:00 +8°C° 0.1 mm 3 m/s 753 mmHg 58%
02:00 +7°C° 0.1 mm 4 m/s 753 mmHg 57%
03:00 +7°C° 0.1 mm 4 m/s 753 mmHg 56%
04:00 +7°C° 0.8 mm 4 m/s 753 mmHg 63%
05:00 +7°C° 0.8 mm 4 m/s 753 mmHg 71%
06:00 +7°C° 0.8 mm 4 m/s 753 mmHg 78%
07:00 +7°C° 0.3 mm 4 m/s 754 mmHg 81%
08:00 +7°C° 0.3 mm 4 m/s 754 mmHg 85%
09:00 +7°C° 0.3 mm 4 m/s 754 mmHg 89%
10:00 +10°C° 0.1 mm 4 m/s 754 mmHg 84%
11:00 +12°C° 0.1 mm 4 m/s 754 mmHg 79%
12:00 +13°C° 0.1 mm 4 m/s 754 mmHg 74%
13:00 +14°C° 0 mm 4 m/s 754 mmHg 69%
14:00 +15°C° 0 mm 4 m/s 754 mmHg 64%
15:00 +15°C° 0 mm 4 m/s 754 mmHg 59%
16:00 +14°C° 0 mm 4 m/s 754 mmHg 65%
17:00 +13°C° 0 mm 4 m/s 754 mmHg 72%
18:00 +11°C° 0 mm 4 m/s 755 mmHg 78%
19:00 +11°C° 0 mm 4 m/s 755 mmHg 80%
20:00 +11°C° 0 mm 4 m/s 755 mmHg 81%
21:00 +11°C° 0 mm 4 m/s 755 mmHg 83%
22:00 +11°C° 0.1 mm 4 m/s 755 mmHg 82%
23:00 +10°C° 0.1 mm 5 m/s 755 mmHg 81%

3 Novembre, Mardi

Heure Température Précipitation Vent Pression Humidité
00:00 +10°C° 0.1 mm 5 m/s 755 mmHg 80%
01:00 +10°C° 0.3 mm 5 m/s 755 mmHg 82%
02:00 +11°C° 0.3 mm 4 m/s 755 mmHg 84%
03:00 +11°C° 0.3 mm 4 m/s 755 mmHg 86%
04:00 +11°C° 0.1 mm 4 m/s 755 mmHg 87%
05:00 +11°C° 0.1 mm 4 m/s 755 mmHg 87%
06:00 +10°C° 0.1 mm 4 m/s 755 mmHg 88%
07:00 +11°C° 0.1 mm 4 m/s 756 mmHg 87%
08:00 +10°C° 0.1 mm 5 m/s 756 mmHg 85%
09:00 +10°C° 0.1 mm 5 m/s 756 mmHg 84%
10:00 +12°C° 0.1 mm 5 m/s 756 mmHg 80%
11:00 +13°C° 0.1 mm 5 m/s 756 mmHg 76%
12:00 +13°C° 0.1 mm 6 m/s 757 mmHg 72%
13:00 +13°C° 0.1 mm 5 m/s 757 mmHg 72%
14:00 +13°C° 0.1 mm 5 m/s 757 mmHg 72%
15:00 +13°C° 0.1 mm 5 m/s 757 mmHg 71%
16:00 +13°C° 0.1 mm 4 m/s 757 mmHg 73%
17:00 +12°C° 0.1 mm 4 m/s 757 mmHg 75%
18:00 +12°C° 0.1 mm 3 m/s 757 mmHg 76%
19:00 +11°C° 0.1 mm 3 m/s 757 mmHg 77%
20:00 +11°C° 0.1 mm 4 m/s 758 mmHg 79%
21:00 +10°C° 0.1 mm 4 m/s 758 mmHg 80%
22:00 +10°C° 0 mm 4 m/s 758 mmHg 80%
23:00 +10°C° 0 mm 3 m/s 758 mmHg 80%

4 Novembre, Mercredi

Heure Température Précipitation Vent Pression Humidité
00:00 +9°C° 0 mm 3 m/s 758 mmHg 80%
01:00 +9°C° 0 mm 3 m/s 758 mmHg 80%
02:00 +8°C° 0 mm 3 m/s 758 mmHg 80%
03:00 +8°C° 0 mm 2 m/s 758 mmHg 79%
04:00 +8°C° 0 mm 2 m/s 758 mmHg 78%
05:00 +7°C° 0 mm 2 m/s 758 mmHg 76%
06:00 +7°C° 0 mm 2 m/s 758 mmHg 74%
07:00 +8°C° 0 mm 2 m/s 759 mmHg 71%
08:00 +8°C° 0 mm 3 m/s 759 mmHg 68%
09:00 +9°C° 0 mm 3 m/s 759 mmHg 64%
10:00 +10°C° 0 mm 3 m/s 759 mmHg 60%
11:00 +11°C° 0 mm 3 m/s 759 mmHg 57%
12:00 +12°C° 0 mm 3 m/s 759 mmHg 53%
13:00 +12°C° 0 mm 3 m/s 759 mmHg 53%
14:00 +12°C° 0 mm 3 m/s 758 mmHg 52%
15:00 +12°C° 0 mm 3 m/s 758 mmHg 52%
16:00 +12°C° 0 mm 3 m/s 758 mmHg 56%
17:00 +11°C° 0 mm 3 m/s 758 mmHg 60%
18:00 +10°C° 0 mm 3 m/s 758 mmHg 64%
19:00 +10°C° 0 mm 3 m/s 758 mmHg 66%
20:00 +10°C° 0 mm 3 m/s 759 mmHg 68%
21:00 +9°C° 0 mm 3 m/s 759 mmHg 70%
22:00 +9°C° 0 mm 3 m/s 759 mmHg 71%
23:00 +9°C° 0 mm 3 m/s 758 mmHg 72%

5 Novembre, Jeudi

Heure Température Précipitation Vent Pression Humidité
00:00 +8°C° 0 mm 3 m/s 758 mmHg 73%
01:00 +8°C° 0 mm 3 m/s 758 mmHg 75%
02:00 +7°C° 0 mm 3 m/s 758 mmHg 76%
03:00 +7°C° 0 mm 3 m/s 758 mmHg 77%
04:00 +7°C° 0 mm 3 m/s 758 mmHg 78%
05:00 +5°C° 0 mm 3 m/s 758 mmHg 78%
06:00 +5°C° 0 mm 3 m/s 758 mmHg 78%
07:00 +5°C° 0 mm 3 m/s 758 mmHg 76%
08:00 +7°C° 0 mm 3 m/s 758 mmHg 73%
09:00 +7°C° 0 mm 3 m/s 758 mmHg 71%
10:00 +8°C° 0 mm 3 m/s 758 mmHg 66%
11:00 +9°C° 0 mm 3 m/s 758 mmHg 61%
12:00 +10°C° 0 mm 2 m/s 757 mmHg 55%
13:00 +11°C° 0 mm 3 m/s 757 mmHg 55%
14:00 +11°C° 0 mm 3 m/s 757 mmHg 54%
15:00 +11°C° 0 mm 3 m/s 757 mmHg 53%
16:00 +10°C° 0 mm 3 m/s 757 mmHg 57%
17:00 +9°C° 0 mm 3 m/s 757 mmHg 62%
18:00 +8°C° 0 mm 3 m/s 756 mmHg 66%
19:00 +8°C° 0 mm 3 m/s 756 mmHg 68%
20:00 +8°C° 0 mm 3 m/s 756 mmHg 69%
21:00 +6°C° 0 mm 4 m/s 756 mmHg 70%
22:00 +6°C° 0 mm 4 m/s 756 mmHg 69%
23:00 +6°C° 0 mm 4 m/s 756 mmHg 69%
Voir plus

Nous avons besoin de votre consentement

Meteoprog et ses fournisseurs de services peuvent stocker et accéder à des données personnelles telles que des cookies, des identifiants d'appareils ou d'autres technologies similaires sur votre appareil et traiter ces données pour personnaliser le contenu et les publicités, ainsi que pour fournir des fonctionnalités de médias sociaux et analyser le trafic.

  • Stocker et/ou accéder à des informations sur votre appareil

    Des cookies, des identifiants d'appareils ou d'autres informations peuvent être stockés ou accessibles sur votre appareil aux fins indiquées ci-dessus.

  • Annonces et contenus personnalisés, mesure des annonces et des contenus, connaissance de l'audience et développement de produits

    Les annonces et le contenu peuvent être personnalisés en fonction d'un profil. D'autres données peuvent être ajoutées pour mieux personnaliser les annonces et le contenu. Les performances des publicités et du contenu peuvent être mesurées. Il est possible d'obtenir des informations sur le public qui a vu les publicités et le contenu. Ces données peuvent être utilisées pour développer ou améliorer l'expérience de l'utilisateur, les systèmes et les logiciels.

En cliquant sur "J'accepte", vous autorisez l'utilisation de cookies, des identifiants d'appareils, des balises web ou d'autres technologies similaires. Vos paramètres peuvent être modifiés dans le navigateur de votre appareil.

Dans certains cas, des intérêts légitimes peuvent être invoqués plutôt qu'un consentement. Vous pouvez en savoir plus à ce sujet dans notre Politique de confidentialité et de cookies.